Starlink 33622

operational
NORAD ID: 63066 Int'l Des: 2025-035 Owner: SPXS Country: US Constellation: starlink
LEOCIRCULAR

Über Starlink 33622

Beschreibung wird geladen...

Live-Position

3D-Globus wird geladen...

Nächste Überflüge

Höhenverlauf

Altitude vs Time

uPlot chart will show altitude changes over time

Zweizeiliger Elementsatz

1 63066U 25035Q 26034.23638912 .00044628 00000-0 16188-2 0 9995
2 63066 43.0032 341.3835 0002748 244.0382 116.0187 15.27631672 54469
Epoch: 3. Feb. 2026 • Age: 12 hours

Aktueller Status

Höhe 493.2 km
Geschwindigkeit 7.62 km/s
Subsatellitenpunkt -40.61°S, 175.6°W
Startdatum 21. Feb. 2025
Alter 0.9 years
Typ internet

Technische Details

Klassifizierung Payload
Masse 575.00 kg
Trockenmasse 530.00 kg
Gesamtmasse 575.00 kg
Länge 0.30 m
Durchmesser 4.10 m
Spannweite 29.00 m
Form Box + pan
Hersteller SPXS
Bus-Typ Starlink V2MO
Phasenstatus In Orbit
Besitzer/Staat SPXS/US

Große Konstellationen

Loading constellations...